GFSFLT2_sfc_temp_309.txt.gz
Temp
34 36 35 36 37 38 38 38 39 38 40 42 43 44 45 46 46 47 47 48 49 50 51 52 53 54 55
32 33 34 36 36 35 36 39 39 39 40 41 42 43 45 45 45 46 46 46 47 48 49 49 51 53 54
28 33 34 36 35 36 36 37 38 38 39 41 42 43 44 44 44 45 45 46 46 46 47 48 49 51 52
28 31 33 35 35 33 33 37 37 39 39 40 41 41 42 43 43 43 43 44 45 46 46 47 48 49 50
28 30 31 32 32 35 33 35 37 38 37 38 39 39 39 40 40 41 42 43 44 44 45 45 46 47 48
30 29 30 33 34 33 33 32 29 40 37 37 39 37 39 39 40 40 41 42 43 44 44 44 45 46 46
30 31 32 35 35 33 34 33 32 37 37 33 39 38 40 41 40 41 42 42 43 43 43 44 44 45 45
35 34 35 36 36 35 34 34 35 36 36 30 38 37 40 41 41 41 41 41 42 43 43 43 43 44 44
39 39 39 40 40 35 32 31 31 34 38 33 35 36 38 39 41 41 41 41 41 42 43 43 43 44 44
35 36 36 36 37 36 33 29 29 28 35 32 33 34 30 38 40 40 40 40 41 42 43 43 43 41 41
31 33 34 33 34 34 34 33 29 28 35 34 31 32 31 31 36 38 38 39 40 41 41 42 42 41 39
30 29 30 31 32 33 34 34 34 32 34 34 29 30 29 29 29 36 38 38 38 37 38 39 40 41 42
25 26 29 30 31 31 31 32 31 32 34 34 31 31 30 28 29 31 33 35 37 35 36 36 37 38 37
25 28 28 28 28 29 27 28 27 28 32 33 33 32 29 31 31 30 33 29 35 35 35 36 37 38 37
24 25 26 27 27 29 28 27 25 25 27 31 32 33 32 31 28 31 32 32 34 34 34 32 35 37 37
24 25 24 25 25 26 27 26 24 25 25 28 29 28 28 31 34 30 32 31 34 34 34 30 31 38 39
22 22 23 24 24 24 25 24 24 26 26 28 27 25 22 22 31 36 30 32 31 31 33 32 31 34 37

GFSFLT2_sfc_temp_315.txt.gz
Temp
38 40 39 39 41 42 43 41 42 45 46 46 45 45 46 46 47 47 48 49 49 50 50 51 51 51 52
35 36 36 39 40 39 42 44 42 45 46 45 45 45 46 46 46 47 47 47 48 48 49 49 50 50 51
31 35 35 37 37 39 40 40 44 45 46 46 46 45 45 46 46 46 46 46 47 47 47 48 48 49 49
31 31 33 36 37 35 35 38 39 45 45 45 46 46 45 45 45 45 45 45 46 47 47 47 47 47 48
30 31 31 32 32 35 35 36 37 40 39 40 40 40 41 45 45 45 45 45 45 45 46 46 46 47 47
31 30 31 32 34 34 34 32 30 38 37 37 39 39 41 41 46 46 46 46 45 45 45 45 45 46 46
30 31 30 33 34 33 33 33 32 36 36 33 38 36 40 44 45 46 46 46 45 45 45 45 45 45 45
35 34 35 36 36 35 34 34 35 36 37 29 36 35 38 40 45 45 46 46 46 45 45 45 45 45 45
40 40 40 41 40 36 31 29 29 32 36 34 35 34 36 37 40 43 44 44 45 45 45 45 44 44 43
36 37 38 38 40 37 34 29 29 27 34 30 31 31 27 34 36 38 38 42 44 45 44 45 44 40 39
31 32 33 34 33 34 35 33 29 28 34 32 28 28 28 28 31 34 35 36 37 39 43 44 44 43 38
31 31 31 32 33 34 35 35 35 33 34 33 26 27 26 24 25 30 32 34 35 35 36 40 43 43 44
27 28 30 31 32 31 32 32 31 32 35 32 30 29 28 25 25 27 28 31 33 33 34 35 35 37 35
26 28 28 28 27 28 26 27 26 27 31 31 31 30 26 27 27 26 28 26 29 32 33 34 36 37 36
26 26 26 26 26 27 27 27 24 24 25 28 31 31 30 28 25 27 27 27 30 30 31 30 32 34 35
26 25 24 24 24 25 26 24 23 24 25 26 26 26 27 29 33 27 27 27 29 30 31 28 29 33 36
24 24 24 24 24 23 24 24 23 24 24 26 25 24 21 20 28 37 28 29 29 29 29 29 28 30 33

GFSFLT2_sfc_temp_321.txt.gz
Temp
30 31 31 31 33 33 36 36 37 44 46 47 47 48 48 48 48 48 49 49 50 51 51 51 52 52 52
27 28 29 30 31 30 36 40 36 43 45 46 47 48 48 48 48 48 48 48 48 49 49 50 50 51 51
27 28 28 28 29 30 31 32 38 42 45 45 46 47 47 47 48 48 47 47 47 47 48 48 49 49 50
27 28 27 29 28 27 28 31 32 39 41 43 45 45 46 46 46 46 46 46 47 47 47 47 47 48 48
26 26 27 27 26 28 29 30 31 33 34 34 34 35 36 41 42 44 45 46 47 47 47 47 47 47 47
26 25 26 27 28 28 29 28 27 32 30 31 33 33 35 36 42 44 45 46 46 46 47 47 47 47 47
26 26 27 29 29 28 28 27 27 32 30 29 33 32 35 39 42 43 44 44 45 46 46 46 47 47 47
28 27 28 30 30 31 30 29 29 30 30 26 32 31 33 34 40 42 43 44 44 44 44 45 45 45 46
39 39 39 40 39 33 29 27 27 29 30 28 29 30 31 32 33 41 42 42 42 42 43 44 44 44 42
30 32 35 33 38 33 24 22 25 23 31 27 29 27 23 29 31 33 31 37 40 41 41 42 42 38 36
27 27 28 28 29 30 30 29 26 24 31 29 20 24 24 26 27 29 30 31 32 34 37 39 39 39 35
28 27 27 28 28 28 29 29 29 29 30 29 23 25 21 23 23 27 29 30 30 30 31 35 38 39 40
23 25 27 27 27 26 28 27 27 28 31 29 26 24 22 21 21 24 25 27 29 28 29 30 30 31 30
24 24 23 23 24 24 22 24 19 23 28 28 27 26 21 22 23 23 24 22 25 27 28 29 30 31 31
22 24 25 25 25 25 23 22 19 20 21 23 27 26 25 24 23 25 24 25 27 27 27 26 29 30 31
22 22 22 22 22 23 24 20 20 21 20 21 17 15 21 25 30 24 26 25 27 27 27 25 26 30 31
20 21 22 22 23 22 21 22 21 21 21 21 14 14 16 15 24 33 24 25 26 25 26 26 25 28 30

GFSFLT2_sfc_temp_324.txt.gz
Temp
29 29 30 30 32 33 35 34 36 43 45 46 47 48 48 48 49 49 49 49 50 51 52 52 53 53 53
26 28 28 29 29 28 35 38 35 40 44 46 47 47 48 48 48 48 48 48 48 49 50 50 51 51 52
26 27 28 28 29 29 30 30 37 41 43 44 45 46 47 47 47 47 47 47 47 48 48 48 49 50 50
27 28 27 29 27 26 28 30 31 38 39 41 44 44 45 46 46 45 45 46 47 47 47 48 48 48 49
26 27 27 26 26 28 28 28 29 30 31 32 33 33 35 40 41 43 44 45 46 47 47 48 48 48 48
25 25 26 26 26 27 26 27 23 31 29 30 32 31 33 35 41 43 44 44 45 45 46 47 46 47 47
25 25 24 28 28 27 26 26 26 30 28 28 30 29 33 37 41 42 43 44 44 45 45 45 45 45 46
28 27 28 30 29 30 29 28 29 30 30 25 30 29 31 31 39 41 42 43 43 44 44 43 43 44 45
38 38 38 38 37 29 27 27 26 28 29 25 28 29 29 30 31 39 41 42 43 42 42 42 42 42 42
30 32 35 33 38 32 23 21 24 25 30 25 27 27 23 29 31 30 30 37 39 40 40 40 40 36 35
27 27 28 28 29 29 29 28 24 22 30 28 20 23 24 25 26 29 29 31 30 32 37 38 38 37 33
28 27 27 27 28 28 29 28 28 28 30 29 17 23 18 21 22 27 28 30 30 29 30 34 36 37 38
28 26 27 27 27 26 28 27 27 28 31 29 25 23 21 20 20 22 24 26 28 27 28 28 29 30 28
25 25 24 23 23 24 21 22 18 22 27 27 26 24 18 20 22 22 23 22 24 26 27 28 29 30 30
23 23 24 25 25 23 22 20 15 19 20 22 26 26 24 22 20 22 22 23 26 26 26 26 28 30 30
23 22 21 21 21 21 23 17 19 20 20 21 15 13 17 23 28 22 23 23 25 26 26 24 25 30 31
20 20 20 20 23 22 21 21 20 21 21 21 15 14 15 14 23 31 22 24 24 23 25 25 24 27 29

GFSFLT2_sfc_temp_327.txt.gz
Temp
29 29 29 30 31 31 33 32 33 41 44 46 46 47 48 49 49 49 49 49 50 50 51 52 52 53 53
27 28 28 29 29 28 33 37 32 39 44 45 46 47 48 48 48 48 48 48 49 49 49 50 50 51 52
26 27 27 28 28 29 30 29 36 40 42 43 44 45 46 47 47 47 46 46 46 47 48 48 49 49 50
25 26 26 28 27 27 27 30 31 36 38 40 42 43 43 44 45 44 44 45 46 46 47 47 48 48 49
25 25 25 26 25 27 27 27 28 30 31 32 32 32 34 39 40 42 43 45 45 46 46 47 47 47 48
24 23 24 25 26 26 26 25 23 29 28 31 32 31 32 33 40 42 43 44 44 45 45 46 46 45 46
24 25 22 26 27 26 26 25 25 29 28 27 31 30 33 36 40 41 42 43 44 44 44 45 45 45 44
28 26 27 28 28 29 28 27 28 30 29 24 29 27 30 31 38 40 41 42 43 43 44 44 43 43 42
38 38 37 38 36 27 23 26 26 27 29 25 28 29 29 29 31 39 40 41 41 42 42 42 42 42 38
29 32 35 32 38 32 24 20 24 21 29 25 26 26 21 29 29 30 30 36 39 40 40 40 40 35 33
27 27 28 28 29 29 29 28 22 20 30 27 18 21 21 25 26 29 28 30 30 32 36 37 38 37 31
27 27 27 27 29 29 29 28 28 28 30 28 13 20 9 19 21 26 27 28 29 29 30 33 35 36 37
27 27 27 28 29 27 28 28 27 27 31 29 25 23 18 19 19 22 23 25 27 27 27 28 28 29 27
27 28 28 26 25 25 20 22 18 22 27 27 26 23 15 19 20 19 22 21 24 26 27 27 29 29 29
25 24 25 25 25 24 22 20 15 18 20 21 26 26 23 21 18 22 22 22 24 24 25 24 27 29 29
25 25 23 22 21 21 22 17 18 20 19 19 14 13 16 22 27 22 23 23 24 25 25 22 23 27 29
24 22 22 20 22 19 19 21 20 20 20 19 14 15 15 13 22 31 22 23 23 22 24 23 22 25 28

GFSFLT2_sfc_temp_333.txt.gz
Temp
37 38 38 38 39 40 40 41 41 42 45 46 46 47 48 49 49 49 49 49 49 49 50 51 52 52 53
35 36 36 37 37 38 39 41 41 41 44 44 45 46 47 47 47 48 47 47 47 48 48 49 50 51 51
33 35 36 37 36 37 37 38 40 40 41 42 43 44 45 45 46 46 45 45 46 46 47 47 48 49 50
33 33 35 35 35 34 34 37 37 40 40 41 41 41 42 43 43 42 43 44 45 46 46 46 47 48 48
31 32 33 33 32 34 33 34 36 37 38 39 39 40 41 41 40 41 43 44 44 45 45 46 46 47 47
31 30 31 32 34 33 32 31 30 37 36 36 38 38 40 40 40 42 42 43 44 44 44 45 45 46 46
29 30 29 33 33 32 32 32 31 35 34 32 37 36 39 40 40 41 42 42 42 43 43 44 44 45 45
34 33 34 35 35 34 34 33 34 35 35 28 36 35 38 39 39 40 41 41 41 42 42 42 42 43 43
37 37 37 38 38 33 30 28 28 32 35 32 34 34 36 37 40 38 39 39 39 40 40 40 41 41 41
34 35 37 37 38 37 33 29 29 28 35 31 32 33 29 35 37 38 38 37 37 38 38 38 38 38 38
31 33 33 33 34 35 36 34 30 29 36 34 29 30 29 29 33 35 36 35 36 36 36 36 36 36 35
31 31 31 32 34 34 34 35 36 34 37 36 28 29 26 25 25 32 34 34 34 33 34 35 35 35 36
28 30 32 34 34 33 33 33 33 33 35 34 31 29 28 24 25 27 28 31 33 31 32 32 32 33 31
29 31 31 31 30 32 30 30 28 29 31 33 32 30 25 26 26 24 27 24 30 31 31 31 32 33 32
27 28 28 29 29 31 30 29 25 26 27 28 30 30 29 26 23 25 25 26 28 29 28 27 30 31 32
26 26 25 26 26 28 28 27 26 26 25 27 25 24 24 26 29 24 26 26 28 29 28 25 26 31 33
25 25 26 25 26 26 26 26 24 25 25 26 23 21 18 17 26 32 26 27 27 26 27 26 25 28 31

GFSFLT2_sfc_temp_339.txt.gz
Temp
40 41 40 40 42 43 43 42 43 44 45 46 46 47 48 48 49 49 49 48 49 49 50 50 51 51 52
37 37 38 40 40 39 43 45 42 45 44 44 45 46 46 47 47 47 47 47 47 47 48 49 49 50 50
35 38 38 39 38 40 40 39 44 44 45 45 44 45 44 45 45 45 44 45 46 46 47 47 47 48 49
35 35 36 37 36 34 35 38 38 44 44 42 42 43 44 44 44 43 43 44 45 46 46 46 46 47 48
33 33 34 34 33 35 33 35 36 38 37 38 38 38 40 44 43 43 43 44 44 45 45 45 45 46 46
32 32 32 34 35 34 33 31 29 37 34 35 38 36 38 39 44 42 43 43 43 44 44 44 44 44 45
29 30 31 34 34 32 32 32 31 35 34 32 36 35 38 43 44 43 43 43 43 43 43 43 43 43 43
34 33 34 35 34 34 33 33 34 35 35 28 34 34 37 37 44 44 43 42 42 42 42 42 42 42 42
39 39 39 39 39 34 30 29 28 31 36 32 32 33 35 35 37 43 41 41 41 41 41 41 41 41 38
35 37 38 37 39 35 32 28 29 28 33 31 30 31 26 33 34 34 34 41 41 41 41 41 40 34 32
32 33 34 34 34 35 35 33 29 28 35 33 28 27 26 28 30 32 33 33 33 35 40 40 40 38 30
31 31 31 32 33 34 34 34 35 33 34 34 28 29 26 26 26 30 30 31 32 32 32 37 39 39 39
28 29 30 31 32 31 32 33 33 34 36 33 32 31 30 26 26 25 28 28 30 30 31 31 30 31 30
28 29 30 29 29 30 29 29 28 29 32 33 32 31 28 29 28 26 26 22 27 29 30 30 31 32 32
27 27 28 28 28 29 28 27 25 25 26 29 31 32 31 29 25 26 26 26 28 29 28 27 29 31 31
25 25 25 25 25 26 27 25 24 25 25 26 27 27 27 28 31 25 26 26 28 28 28 25 25 29 31
22 22 23 23 23 23 24 24 23 24 25 26 25 24 21 20 25 34 24 25 26 24 26 25 24 28 30

GFSFLT2_sfc_temp_342.txt.gz
Temp
32 34 34 34 36 37 38 37 37 45 46 46 46 47 47 48 48 49 49 49 49 49 49 50 51 51 51
31 31 32 34 34 34 39 43 38 45 45 45 46 46 46 47 47 47 47 47 47 47 48 48 49 49 50
29 31 31 33 32 33 35 35 41 45 46 46 46 45 45 45 45 45 45 45 46 46 47 47 47 48 49
29 29 30 32 31 30 30 32 33 41 43 44 43 44 44 45 45 44 44 44 45 46 46 46 46 46 47
28 28 29 29 29 30 30 30 32 33 33 34 34 34 36 42 43 44 44 44 44 45 45 45 45 45 46
28 27 28 29 30 30 29 28 25 32 31 32 33 32 34 35 43 44 44 44 44 44 44 44 44 44 45
24 25 25 29 29 28 28 28 27 31 30 29 32 31 34 40 44 45 45 44 43 43 43 43 43 43 43
30 29 30 31 31 32 30 29 30 31 31 26 30 30 32 33 42 44 44 44 43 42 42 42 42 42 42
39 40 39 40 38 29 26 22 26 29 31 28 30 30 31 31 33 42 43 42 42 42 42 42 42 42 37
31 33 35 33 40 33 27 23 25 24 31 27 28 29 25 30 31 32 32 39 41 41 41 41 41 33 30
27 28 29 29 30 31 31 30 25 24 31 29 21 24 23 27 28 31 31 31 31 33 39 40 40 39 30
25 26 27 27 29 31 32 31 31 30 31 31 17 22 14 22 24 28 28 29 29 30 30 36 38 39 39
20 24 26 27 29 28 30 30 30 30 34 31 28 27 22 24 26 26 28 28 29 28 29 30 29 30 29
22 23 25 24 24 25 23 25 22 25 30 30 30 29 25 26 27 27 28 25 26 26 28 29 29 31 30
21 23 25 26 26 25 24 21 18 21 22 23 28 29 29 27 25 27 26 25 27 27 27 26 28 29 30
20 20 20 20 21 22 23 19 20 22 22 19 21 22 23 27 32 27 28 26 27 27 27 23 24 28 30
16 17 20 20 21 19 20 20 20 21 22 20 18 15 18 17 26 35 26 27 26 24 26 25 23 27 29

GFSFLT2_sfc_temp_348.txt.gz
Temp
30 30 31 31 34 34 35 34 35 46 47 47 47 47 48 48 48 48 48 48 49 49 49 50 50 50 51
27 28 30 30 30 31 36 39 35 43 47 47 47 47 46 47 47 46 46 46 46 47 48 48 49 49 50
27 28 28 29 30 30 32 31 38 43 44 45 45 46 46 46 46 46 45 45 45 46 46 46 47 47 48
27 27 28 29 29 29 29 30 31 38 40 42 42 43 44 44 43 44 45 45 45 45 45 45 46 46 47
27 27 27 28 28 28 29 29 30 31 31 32 33 33 34 38 39 42 45 45 45 45 45 45 45 45 45
25 26 26 26 28 28 28 27 25 30 30 31 32 32 32 33 41 43 44 45 45 45 45 44 44 44 44
20 23 24 28 28 27 27 27 27 30 29 27 30 30 32 37 40 42 43 44 44 45 44 43 43 43 43
28 27 28 29 29 30 29 28 29 30 29 22 29 29 31 32 40 42 42 43 43 44 43 43 43 43 42
38 38 39 39 37 28 22 19 21 27 29 25 27 28 29 29 31 39 41 41 42 42 43 43 42 42 35
29 31 32 31 36 30 24 18 21 21 28 25 26 27 22 29 29 32 31 37 40 40 40 41 41 35 30
26 26 27 27 28 29 29 28 23 21 29 29 22 22 21 25 26 29 29 30 30 32 37 38 39 39 32
24 24 25 26 26 27 28 28 29 29 29 29 17 20 11 19 23 27 27 28 28 29 30 34 37 38 39
19 21 25 25 27 26 27 28 27 28 31 29 24 23 15 18 21 22 25 26 28 28 28 28 28 30 28
20 22 23 23 22 24 21 22 17 21 27 27 27 24 12 20 22 22 25 21 26 27 28 28 29 29 29
19 20 22 23 23 22 21 18 11 13 16 20 25 25 23 21 19 21 22 23 25 26 26 25 28 30 29
18 18 17 17 16 18 18 12 12 15 15 16 17 17 17 21 28 22 23 22 25 25 26 24 25 29 29
15 15 16 16 18 14 16 16 15 16 16 16 12 8 12 11 21 31 22 23 23 22 24 23 23 26 29